Wind_Speed
54 54 54 53 53 53 54 54 54 53 52 51 51 52 53 53 54 55 55 55 55 55 55 54 53 52 51 50 49 49 48 47 46 45 44 43 41 39
55 55 54 54 55 54 54 54 54 54 53 51 52 53 54 54 55 55 55 55 54 54 54 53 51 51 51 50 49 48 48 47 45 44 43 41 38 37
53 53 54 55 55 55 55 54 54 55 54 52 53 53 54 55 55 55 56 55 54 53 52 51 50 49 49 49 49 48 47 45 44 42 42 40 38 36
52 53 53 53 54 54 54 53 53 54 54 53 53 53 53 54 53 53 53 53 52 51 50 49 48 49 48 48 48 47 47 45 43 41 40 38 36 36
51 51 51 52 53 53 53 52 52 53 53 54 54 53 53 53 53 53 52 51 50 50 50 49 49 49 49 48 47 46 46 45 43 41 39 38 37 35
49 49 50 52 53 52 52 52 52 53 54 55 54 54 53 53 53 53 52 52 51 50 50 49 50 50 49 47 45 45 44 43 42 41 39 38 37 35
49 50 51 52 52 51 51 51 52 54 55 54 54 54 53 53 53 54 54 53 52 52 51 50 49 48 47 46 44 43 43 43 42 40 39 38 38 37
49 50 51 52 51 51 51 52 52 53 52 52 52 53 53 53 53 53 53 53 52 51 51 49 48 47 46 45 43 42 40 41 41 40 39 38 38 37
47 49 51 50 51 53 54 53 53 53 53 53 53 53 53 53 54 53 52 52 51 49 49 47 47 46 45 43 43 42 40 40 41 40 38 37 38 37
46 47 49 49 51 52 53 54 54 54 54 55 54 53 53 53 53 52 51 51 50 49 48 48 47 46 45 43 42 42 40 39 38 38 37 37 37 36
43 44 46 47 48 50 51 52 52 52 52 52 52 52 52 51 51 50 50 50 50 49 48 48 47 46 44 42 41 40 38 38 38 37 36 35 35 35
42 42 44 45 46 47 48 49 50 50 50 51 51 50 49 49 49 49 49 49 49 48 47 45 44 43 41 40 39 38 37 36 36 35 34 33 33 33
40 40 41 42 43 44 45 46 47 48 48 49 48 47 46 45 46 46 46 46 45 44 43 42 41 41 39 37 37 37 36 35 35 34 33 33 32 32
37 38 38 39 40 41 42 43 44 45 46 45 45 44 43 43 42 42 42 42 42 41 40 40 39 38 36 34 34 34 34 33 33 32 32 32 32 31
34 35 36 37 37 38 40 41 42 42 42 42 42 42 42 41 41 40 39 39 39 38 37 36 36 35 33 32 32 32 32 32 32 31 31 31 30 30
33 33 33 33 34 35 36 38 39 39 39 39 39 39 39 39 39 39 38 37 36 35 34 33 33 32 31 31 30 30 31 32 31 31 30 30 30 30
32 31 31 31 31 32 33 33 34 35 35 35 36 35 35 35 35 35 35 35 34 32 32 32 31 29 28 29 30 30 31 32 32 31 30 29 29 29
30 29 29 28 29 30 30 31 32 32 32 32 32 33 32 32 33 32 32 33 32 31 30 30 30 29 29 28 29 30 30 30 30 29 29 29 29 29
28 28 28 29 28 28 29 29 29 29 30 30 30 30 30 30 30 29 29 30 30 30 29 29 29 29 28 28 28 28 28 29 29 30 30 29 29 29
26 26 27 27 28 28 29 29 29 29 28 29 28 27 27 27 27 27 27 27 27 27 28 27 27 27 28 27 27 26 27 28 29 30 30 30 30 30
27 26 26 26 27 28 28 27 27 27 27 27 26 26 25 25 25 25 25 24 24 25 25 25 25 25 26 27 27 26 26 27 27 28 29 30 30 30
27 27 27 27 27 28 27 27 26 26 25 25 25 24 24 23 23 22 22 22 22 22 23 24 24 25 25 26 26 27 26 26 27 28 29 29 29 30
27 27 27 27 27 27 27 26 25 25 24 23 23 22 22 21 21 21 22 22 23 22 22 23 23 24 24 25 25 26 26 26 27 28 28 29 29 30
Wind_Direction
256 260 263 264 266 266 268 270 272 273 273 273 273 273 274 275 276 277 277 276 276 276 277 277 277 276 276 276 277 278 280 280 279 280 281 283 284 283
258 260 263 264 266 266 267 269 271 273 274 274 273 274 275 276 277 278 278 277 276 277 277 277 276 275 276 276 276 277 278 279 278 279 279 278 281 280
259 261 263 264 265 266 267 268 269 272 274 274 274 274 276 277 277 278 279 278 278 277 277 276 276 276 275 275 275 275 276 276 277 278 277 277 278 279
261 262 262 264 265 267 268 268 270 271 273 274 274 274 274 276 277 278 279 278 278 278 277 277 276 276 276 276 274 274 274 274 274 275 274 273 275 278
262 263 264 264 265 267 268 268 269 271 273 274 274 273 274 274 276 277 276 277 277 277 276 276 275 276 276 275 274 273 273 273 273 272 270 269 271 274
264 265 265 265 266 267 268 269 269 271 272 273 274 274 274 274 275 275 275 275 276 276 275 275 276 276 276 275 273 273 272 272 271 270 266 266 267 270
265 265 266 266 267 268 268 269 269 270 272 273 273 273 274 275 275 275 274 274 274 274 275 275 275 275 274 274 272 272 272 271 270 266 264 265 265 267
266 266 267 268 267 267 268 267 269 270 271 273 273 275 275 276 277 275 274 273 273 274 274 274 274 274 273 273 271 271 270 270 267 265 264 264 263 264
266 266 266 268 268 268 268 267 268 269 271 273 275 277 277 277 276 275 274 274 273 273 273 272 272 273 271 272 271 269 269 268 266 264 262 262 261 262
269 269 268 268 268 268 267 267 268 269 270 272 275 276 277 276 275 274 273 273 271 271 272 272 272 272 271 269 269 268 267 266 264 261 261 261 261 261
271 271 271 270 271 270 269 270 270 271 273 274 274 275 276 274 274 272 272 271 271 270 271 273 272 270 268 267 267 266 266 265 262 260 263 262 260 259
273 273 274 274 274 273 272 271 271 272 273 273 272 273 274 272 272 272 271 271 271 270 270 271 270 268 266 266 265 263 263 262 259 260 261 260 257 256
276 275 276 276 275 274 273 273 273 273 272 272 272 271 272 271 272 272 271 271 270 271 268 267 268 266 264 263 262 261 260 258 257 257 257 255 254 254
278 278 278 277 276 276 274 273 274 274 273 272 271 271 272 271 272 271 269 268 267 267 266 264 264 263 262 259 259 259 259 257 256 255 253 252 251 251
282 281 281 280 278 278 276 274 274 273 273 272 272 271 270 270 270 269 267 265 265 265 263 261 260 259 257 256 257 257 255 255 255 253 251 250 250 251
283 281 282 282 282 282 280 277 275 274 272 271 272 271 269 269 269 268 266 264 262 261 260 258 257 255 255 255 256 256 254 254 252 249 248 248 250 250
286 283 283 283 284 284 281 280 278 277 274 271 272 270 269 267 267 267 266 263 260 259 259 258 256 255 254 255 255 255 254 251 247 246 246 249 250 251
288 286 285 285 286 285 283 282 280 278 275 271 272 271 268 266 265 264 262 260 257 257 257 257 255 253 253 253 253 254 252 250 248 247 247 249 250 251
292 288 287 285 285 287 287 286 283 279 275 272 274 271 268 267 265 262 260 258 257 257 256 256 253 252 252 251 252 252 251 250 249 248 248 249 251 252
294 291 288 288 287 287 288 287 283 279 277 274 272 270 268 267 265 263 260 258 258 258 256 255 252 251 251 251 251 252 252 250 249 249 249 249 250 251
293 293 291 290 291 289 290 289 286 281 277 274 272 272 269 267 265 263 261 261 261 259 256 253 251 252 253 253 252 253 252 250 249 249 248 248 250 252
294 294 294 294 293 292 290 289 287 283 279 276 276 274 269 266 265 264 263 262 262 261 258 255 254 254 254 253 253 253 252 251 250 251 250 251 252 254
294 294 294 294 293 293 292 290 288 284 281 278 276 273 270 268 267 264 263 262 262 261 260 259 258 257 256 255 255 253 252 251 252 253 253 253 254 255
Height
5704 5705 5705 5706 5705 5705 5704 5702 5701 5700 5702 5701 5698 5696 5693 5691 5689 5687 5685 5684 5683 5681 5679 5677 5676 5676 5676 5676 5675 5674 5673 5673 5672 5671 5670 5669 5667 5667
5691 5691 5692 5692 5692 5691 5690 5689 5687 5685 5685 5686 5684 5683 5679 5677 5675 5672 5670 5669 5667 5665 5663 5662 5661 5660 5660 5661 5661 5660 5660 5659 5659 5659 5658 5657 5657 5656
5677 5678 5679 5679 5678 5677 5676 5675 5673 5671 5671 5672 5670 5668 5666 5663 5661 5658 5656 5654 5652 5651 5649 5647 5646 5645 5646 5646 5647 5647 5647 5647 5647 5646 5646 5646 5646 5647
5664 5664 5665 5664 5664 5663 5662 5661 5659 5658 5656 5656 5656 5654 5652 5649 5646 5644 5642 5640 5639 5637 5635 5633 5632 5632 5632 5632 5633 5633 5633 5633 5634 5634 5634 5635 5636 5636
5650 5650 5650 5650 5650 5649 5648 5646 5645 5644 5642 5642 5641 5640 5638 5635 5632 5631 5628 5626 5624 5623 5621 5620 5619 5618 5618 5618 5618 5619 5620 5620 5621 5622 5623 5624 5625 5626
5635 5635 5635 5635 5635 5634 5633 5632 5631 5630 5628 5627 5626 5625 5623 5620 5617 5616 5614 5612 5610 5609 5607 5606 5605 5605 5604 5604 5605 5605 5606 5607 5608 5610 5611 5613 5614 5615
5621 5621 5621 5620 5619 5619 5618 5618 5616 5615 5614 5612 5610 5609 5608 5605 5603 5601 5598 5597 5596 5594 5593 5593 5592 5591 5590 5591 5591 5592 5593 5594 5596 5598 5600 5601 5603 5605
5607 5606 5606 5605 5604 5604 5603 5602 5601 5600 5599 5597 5595 5594 5592 5590 5587 5584 5582 5581 5581 5582 5578 5578 5577 5577 5577 5578 5578 5579 5581 5582 5584 5586 5588 5590 5592 5594
5593 5592 5591 5590 5589 5588 5588 5587 5586 5584 5583 5581 5580 5578 5577 5575 5572 5570 5568 5566 5566 5565 5563 5563 5563 5563 5564 5565 5566 5567 5569 5570 5572 5574 5576 5578 5581 5583
5578 5576 5575 5574 5573 5572 5571 5571 5569 5569 5568 5566 5565 5563 5561 5558 5556 5555 5553 5552 5551 5551 5550 5550 5550 5550 5551 5552 5553 5555 5557 5559 5561 5563 5565 5567 5570 5572
5563 5561 5560 5558 5558 5556 5555 5555 5554 5553 5551 5549 5548 5547 5545 5543 5541 5540 5539 5538 5537 5538 5537 5537 5537 5537 5538 5540 5541 5543 5545 5547 5549 5552 5554 5557 5559 5562
5550 5548 5545 5543 5541 5539 5538 5538 5537 5537 5536 5535 5534 5532 5530 5529 5527 5525 5525 5524 5523 5525 5525 5525 5524 5525 5526 5528 5530 5532 5534 5536 5538 5541 5543 5546 5549 5552
5536 5534 5532 5529 5527 5525 5524 5523 5522 5521 5520 5520 5519 5518 5516 5515 5514 5512 5511 5511 5511 5511 5512 5512 5513 5514 5515 5517 5520 5522 5524 5526 5528 5531 5533 5536 5539 5542
5524 5521 5519 5517 5515 5512 5511 5509 5508 5507 5506 5505 5505 5504 5503 5502 5501 5500 5499 5499 5499 5500 5500 5500 5501 5503 5505 5507 5509 5512 5514 5516 5519 5521 5524 5526 5529 5532
5512 5510 5507 5505 5503 5500 5498 5496 5495 5493 5493 5492 5491 5491 5490 5490 5488 5488 5487 5488 5488 5489 5489 5490 5491 5493 5495 5497 5500 5502 5505 5507 5509 5512 5514 5517 5520 5523
5502 5499 5497 5494 5492 5489 5487 5485 5483 5482 5481 5481 5480 5479 5478 5478 5477 5477 5477 5477 5478 5479 5479 5480 5481 5484 5486 5488 5490 5493 5495 5498 5500 5503 5506 5508 5511 5514
5492 5489 5487 5485 5482 5479 5477 5475 5473 5472 5470 5470 5469 5468 5467 5467 5467 5467 5467 5468 5468 5469 5470 5471 5473 5475 5477 5479 5481 5484 5487 5489 5492 5494 5497 5500 5502 5504
5482 5480 5478 5476 5474 5471 5469 5466 5464 5463 5461 5460 5459 5458 5458 5458 5458 5457 5457 5458 5459 5460 5462 5464 5465 5467 5469 5471 5474 5476 5478 5481 5483 5486 5488 5491 5493 5496
5474 5472 5470 5468 5466 5463 5461 5459 5457 5455 5453 5452 5451 5450 5450 5449 5449 5449 5449 5450 5451 5452 5454 5455 5457 5459 5462 5464 5466 5467 5470 5472 5474 5477 5480 5482 5485 5487
5467 5465 5463 5460 5458 5456 5453 5451 5449 5448 5446 5445 5444 5443 5442 5441 5441 5441 5441 5442 5443 5444 5446 5448 5450 5452 5454 5456 5458 5459 5461 5464 5466 5469 5471 5474 5476 5478
5460 5458 5455 5453 5451 5448 5446 5444 5442 5440 5439 5438 5437 5436 5435 5434 5434 5434 5435 5435 5436 5438 5439 5440 5442 5444 5446 5448 5450 5452 5454 5456 5458 5461 5463 5465 5467 5469
5454 5451 5448 5446 5444 5441 5439 5437 5435 5433 5432 5431 5430 5429 5429 5428 5428 5429 5429 5430 5430 5431 5432 5434 5435 5437 5439 5441 5443 5445 5446 5448 5450 5452 5454 5457 5458 5460
5446 5444 5441 5439 5436 5434 5432 5430 5428 5427 5426 5425 5424 5423 5423 5422 5422 5423 5423 5424 5425 5426 5427 5428 5429 5430 5432 5434 5435 5437 5439 5441 5443 5445 5446 5448 5449 5451